Weather History for Springfield, CO

Change the Weather History Date:

Monday, July 22, 2013

  Actual Average Record
Temperature  
Mean Temperature 83 °F -  
Max Temperature 101 °F 91 °F 101 °F (2013)
Min Temperature 64 °F 62 °F 55 °F (2000)
Degree Days  
Heating Degree Days 0 0  
Month to date heating degree days 0 0  
Since 1 June heating degree days 19 21  
Since 1 July heating degree days 0 0  
Cooling Degree Days 18 12  
Month to date cooling degree days 256 248  
Year to date cooling degree days 724 510  
Since 1 June cooling degree days 607 456  
Growing Degree Days 32 (Base 50)    
Moisture  
Dew Point 48 °F    
Average Humidity 42    
Maximum Humidity 73    
Minimum Humidity 11    
Precipitation  
Precipitation 0.00 in 0.08 in 1.12 in (2004)
Month to date precipitation 1.96 2.00  
Year to date precipitation 5.68 10.07  
Sea Level Pressure  
Sea Level Pressure 29.72 in    
Wind  
Wind Speed 12 mph (SW)    
Max Wind Speed 21 mph    
Max Gust Speed 31 mph    
T = Trace of Precipitation, MM = Missing Value Source: NWS Daily Summary

Daily Weather History Graph

Daily Weather History Graph

Search for Another Location

Airport:

Trip Planner

Search our weather history database for the weather conditions in past years. The results will help you decide how hot, cold, wet, or windy it might be!

Date:

Astronomy

Jul. 22, 2013 Rise Set
Actual Time 5:47 AM MDT 8:06 PM MDT
Civil Twilight 5:17 AM MDT 8:35 PM MDT
Nautical Twilight 4:41 AM MDT 9:12 PM MDT
Astronomical Twilight 4:01 AM MDT 9:51 PM MDT
Moon 7:56 PM MDT (7/22) 5:44 AM MDT (7/22)
Length of Visible Light 15h 18m
Length of Day
14h 18m
Full, 100% of the Moon is Illuminated
Jul 22
Full
Jul 22
Full
Jul 29
Last Quarter
Aug 6
New
Aug 14
First Quarter

Hourly Weather History & Observations

Time (MDT) Temp. Heat Index Dew Point Humidity Pressure Visibility Wind Dir Wind Speed Gust Speed Precip Events Conditions
12:56 AM 75.9 °F - 54.0 °F 46% 29.74 in - SW 15.0 mph 21.9 mph N/A   Unknown
1:56 AM 73.0 °F - 53.1 °F 49% 29.73 in - SW 10.4 mph - N/A   Unknown
2:56 AM 71.1 °F - 53.1 °F 53% 29.72 in - WSW 11.5 mph - N/A   Unknown
3:56 AM 69.1 °F - 54.0 °F 58% 29.71 in - WSW 8.1 mph - N/A   Unknown
4:56 AM 66.9 °F - 55.0 °F 66% 29.71 in - WSW 8.1 mph - N/A   Unknown
5:56 AM 64.0 °F - 55.0 °F 73% 29.74 in - WSW 6.9 mph - N/A   Unknown
6:56 AM 70.0 °F - 55.9 °F 61% 29.73 in - WSW 9.2 mph - N/A   Unknown
7:56 AM 79.0 °F - 55.0 °F 44% 29.73 in - WSW 13.8 mph - N/A   Unknown
8:56 AM 86.0 °F 84.2 °F 54.0 °F 33% 29.73 in - WSW 6.9 mph - N/A   Unknown
9:56 AM 91.0 °F - 51.1 °F 25% 29.73 in - SW 4.6 mph - N/A   Unknown
10:56 AM 93.9 °F - 46.9 °F 20% 29.74 in - SSW 5.8 mph - N/A   Unknown
11:56 AM 98.1 °F - 36.0 °F 11% 29.72 in - SSW 10.4 mph 17.3 mph N/A   Unknown
12:56 PM 98.1 °F - 37.9 °F 12% 29.71 in - South 10.4 mph - N/A   Unknown
1:56 PM 100.0 °F - 39.0 °F 12% 29.70 in - South 9.2 mph - N/A   Unknown
2:56 PM 99.0 °F - 39.9 °F 13% 29.69 in - South 10.4 mph 19.6 mph N/A   Unknown
3:56 PM 96.1 °F - 39.9 °F 14% 29.69 in - SW 16.1 mph 25.3 mph N/A   Unknown
4:56 PM 95.0 °F - 41.0 °F 15% 29.69 in - SSW 15.0 mph 23.0 mph N/A   Unknown
5:56 PM 95.0 °F - 43.0 °F 17% 29.68 in - SW 17.3 mph 25.3 mph N/A   Unknown
6:56 PM 91.9 °F - 45.0 °F 20% 29.69 in - SW 12.7 mph - N/A   Unknown
7:56 PM 87.1 °F - 45.0 °F 23% 29.69 in - SW 11.5 mph - N/A   Unknown
8:56 PM 82.0 °F - 48.9 °F 31% 29.72 in - SW 11.5 mph - N/A   Unknown
9:56 PM 81.0 °F - 52.0 °F 36% 29.74 in - SSW 15.0 mph - N/A   Unknown
10:56 PM 79.0 °F - 53.1 °F 40% 29.76 in - SSW 13.8 mph - N/A   Unknown
11:56 PM 78.1 °F - 55.0 °F 45% 29.77 in - SW 18.4 mph - N/A   Unknown